[[{"header":{"parameterUnit":"m.s-1","parameterCategory":1,"la1":30.2991,"la2":30.254,"lo1":-89.0895,"lo2":-89.0444,"dx":0.0017,"dy":0.0017,"nx":28,"ny":28,"refTime":"2022-12-09T15:00:00:Z","depth":0,"parameterNumber":2,"parameterNumberName":"U-component_of_WINDS"},"data":[0,0,0,0,0,0,0,0,0,0,0,0,0,0,0,0,0,0,0,0,0,0,0,0,0,0,0,0,0,0,0,0,0,0,0,0,0,0,0,0,0,0,0,0,0,0,0,0,0,0,0,0,0,0,0,0,0,0,1.6771,1.6772,0,1.6807,1.6807,1.6808,1.6841,1.6841,1.6842,1.6842,1.6879,1.688,1.6881,0,0,0,0,0,0,0,0,0,0,0,0,0,1.6735,1.6735,1.6771,1.6772,1.6772,1.6807,1.6807,1.6808,1.6841,1.6841,1.6842,1.6842,1.6879,1.688,1.6881,0,0,0,0,0,0,0,0,0,0,0,0,0,1.6758,1.6735,1.6771,1.6793,1.6795,1.6807,1.6807,1.6808,1.6841,1.6841,1.6842,1.6843,1.6879,1.688,1.6881,1.6874,0,0,1.6884,1.6884,0,0,0,0,0,0,0,0,1.6757,1.676,1.6789,1.6791,1.6794,1.682,1.6808,1.683,1.6841,1.6823,1.6842,1.6843,1.6859,1.6862,1.6867,1.6876,1.6877,1.6884,1.6884,1.6885,1.6885,0,0,0,0,0,0,0,1.6755,1.6758,1.6785,1.679,1.6792,1.6802,1.6806,1.6812,1.6837,1.6825,1.6828,1.6831,1.6861,1.6866,1.6868,1.6878,1.6884,1.6884,1.6885,1.6885,1.6886,1.6886,0,0,0,0,0,0,1.675,1.6757,1.6784,1.6786,1.6777,1.6802,1.6806,1.6811,1.6838,1.6842,1.6831,1.6833,1.6864,1.6867,1.687,1.6866,1.6885,1.6885,1.6886,1.6887,1.6886,1.6886,0,0,0,0,0,0,1.6749,1.6752,1.6783,1.6772,1.6777,1.6802,1.6807,1.6811,1.6817,1.6842,1.6847,1.6832,1.6865,1.6868,1.6873,1.6867,1.6886,1.6887,1.6887,1.6887,1.6886,1.6856,0,0,0,0,0,0,1.6748,1.6752,1.6748,1.6772,1.6777,1.6785,1.6806,1.6812,1.6818,1.6821,1.6844,1.6848,1.6866,1.6872,1.6874,1.6869,1.6887,1.6888,1.6887,1.6886,1.6857,1.6854,1.6851,0,0,0,0,0,1.6746,1.6738,1.6748,1.6751,1.6774,1.6784,1.6788,1.6808,1.6818,1.6816,1.6832,1.6848,1.6868,1.6872,1.6875,1.687,1.6888,1.6887,1.6886,1.6859,1.6855,1.6851,0,0,0,0,0,0,1.6713,1.6741,1.6753,1.6752,1.6765,1.679,1.6787,1.6802,1.6813,1.6816,1.684,1.6845,1.6848,1.6859,1.6864,1.6866,1.688,1.688,1.6859,1.6855,1.6852,1.6849,1.6888,0,0,0,0,0,1.6705,1.6711,1.6736,1.6733,1.6739,1.6762,1.6767,1.6782,1.6797,1.6803,1.682,1.6834,1.6845,1.685,1.686,1.6859,1.6866,1.6858,1.6854,1.6852,1.6851,1.6854,1.6851,1.6882,1.6882,1.6882,0,0,1.669,1.6706,1.6708,1.6726,1.6739,1.6745,1.6767,1.6772,1.6777,1.6804,1.681,1.6823,1.6841,1.6844,1.6846,1.6853,1.6844,1.685,1.6848,1.6849,1.6852,1.685,1.6847,1.6881,1.6881,1.6881,0,0,1.6665,1.6677,1.6677,1.6689,1.6708,1.6724,1.6724,1.6746,1.6756,1.6763,1.6784,1.6791,1.6807,1.682,1.6829,1.6812,1.6827,1.6814,1.6798,1.6801,1.6798,1.6796,1.6792,1.679,1.6813,1.6813,1.6813,0,1.6643,1.6653,1.6674,1.6679,1.6688,1.6713,1.6714,1.6725,1.6746,1.6752,1.676,1.6782,1.6796,1.6803,1.68,1.6805,1.6807,1.6812,1.6797,1.6795,1.6793,1.679,1.6788,1.6812,1.6812,1.6812,1.6812,0,1.6626,1.6633,1.663,1.6651,1.6659,1.6661,1.6685,1.6691,1.6705,1.6721,1.6729,1.6747,1.6762,1.6765,1.6779,1.6775,1.678,1.6792,1.6807,1.6788,1.6785,1.6784,1.681,1.681,1.6811,1.6811,0,0,1.6579,1.6614,1.6612,1.6623,1.6647,1.6653,1.6658,1.6673,1.6679,1.6693,1.6699,1.6713,1.6726,1.6735,1.6751,1.6753,1.6741,1.6766,1.6767,1.6762,1.6741,1.6732,1.673,1.6752,1.6752,1.6752,1.674,0,1.6559,1.6569,1.659,1.6593,1.6601,1.6626,1.6631,1.6647,1.6662,1.6672,1.6689,1.6699,1.6714,1.6721,1.6724,1.6742,1.6738,1.6743,1.6759,1.6759,1.6754,1.6728,1.6718,1.6705,1.6738,1.6738,1.6738,0,1.6537,1.655,1.6554,1.658,1.6584,1.6588,1.6605,1.6613,1.6633,1.6644,1.6656,1.6674,1.6683,1.6696,1.6709,1.6712,1.672,1.6731,1.6731,1.6733,1.6748,1.6731,1.6702,1.67,1.6736,1.6736,1.6736,0,1.6504,1.6523,1.6529,1.6537,1.6567,1.6569,1.6582,1.6602,1.6611,1.6626,1.6632,1.6648,1.6657,1.667,1.6693,1.67,1.6704,1.6719,1.6715,1.6714,1.6715,1.6714,1.6688,1.6718,1.6718,1.6718,1.6718,0,1.648,1.6482,1.6515,1.6519,1.6523,1.6548,1.6551,1.6566,1.6584,1.6592,1.6615,1.6623,1.6652,1.6663,1.6681,1.669,1.6694,1.6704,1.6709,1.6702,1.6701,1.6708,1.671,1.6718,1.6718,1.6718,1.6718,0,1.6444,1.6466,1.6474,1.6502,1.6509,1.6511,1.6536,1.6541,1.6558,1.6569,1.6572,1.66,1.6615,1.6639,1.666,1.6672,1.6679,1.6686,1.6672,1.6675,1.667,1.6671,1.6648,1.6647,1.6677,1.6677,1.6676,0,1.6427,1.6429,1.6458,1.6465,1.6477,1.6488,1.6497,1.6523,1.6532,1.6556,1.6559,1.6575,1.659,1.6613,1.6635,1.6653,1.6661,1.6652,1.6664,1.6658,1.6663,1.6663,1.6664,1.6649,1.6649,1.6649,1.6648,0,1.6395,1.6407,1.6419,1.6437,1.6447,1.6462,1.6478,1.6483,1.6512,1.6522,1.6537,1.6549,1.6572,1.6589,1.661,1.6624,1.6642,1.6645,1.6645,1.6638,1.6631,1.6636,1.6666,1.6645,1.6645,1.6645,1.6646,1.6646,1.637,1.6374,1.6395,1.6409,1.6424,1.6439,1.6446,1.6465,1.6478,1.6498,1.6513,1.6528,1.655,1.658,1.6594,1.6607,1.6615,1.6615,1.6615,1.6615,1.6613,1.6628,1.6611,1.6611,1.6611,1.6612,1.6612,0,1.634,1.6356,1.6368,1.6391,1.6402,1.6418,1.6437,1.6446,1.6459,1.6478,1.6492,1.6511,1.6528,1.6553,1.6573,1.6579,1.6587,1.6583,1.6583,1.6587,1.6604,1.6603,1.6576,1.6576,1.6576,1.6576,1.6576,1.6576,1.6327,1.6335,1.635,1.6367,1.6382,1.6397,1.6407,1.6422,1.6437,1.6457,1.6472,1.6488,1.651,1.6532,1.6549,1.6556,1.6563,1.6556,1.6566,1.6582,1.6585,1.6588,1.6587,1.6557,1.6557,1.6547,1.6547,1.6547]},{"header":{"parameterUnit":"m.s-1","parameterCategory":1,"la1":30.2991,"la2":30.254,"lo1":-89.0895,"lo2":-89.0444,"dx":0.0017,"dy":0.0017,"nx":28,"ny":28,"refTime":"2022-12-09T15:00:00:Z","depth":0,"parameterNumber":3,"parameterNumberName":"V-component_of_WINDS"},"data":[0,0,0,0,0,0,0,0,0,0,0,0,0,0,0,0,0,0,0,0,0,0,0,0,0,0,0,0,0,0,0,0,0,0,0,0,0,0,0,0,0,0,0,0,0,0,0,0,0,0,0,0,0,0,0,0,0,0,0.6441,0.6441,0,0.6429,0.6428,0.6428,0.6387,0.6386,0.6385,0.6384,0.6371,0.6371,0.6372,0,0,0,0,0,0,0,0,0,0,0,0,0,0.6425,0.6426,0.6441,0.6441,0.644,0.6429,0.6428,0.6428,0.6387,0.6386,0.6385,0.6384,0.6371,0.6371,0.6372,0,0,0,0,0,0,0,0,0,0,0,0,0,0.6425,0.6426,0.6441,0.6418,0.6416,0.6429,0.6428,0.6428,0.6387,0.6386,0.6384,0.6383,0.6371,0.6371,0.6372,0.6405,0,0,0.6375,0.6375,0,0,0,0,0,0,0,0,0.6425,0.6425,0.6422,0.642,0.6418,0.6408,0.6418,0.642,0.6387,0.6398,0.6384,0.6382,0.6384,0.6384,0.6385,0.6404,0.6404,0.6375,0.6375,0.6375,0.6376,0,0,0,0,0,0,0,0.6425,0.6425,0.6436,0.6422,0.6419,0.6408,0.6406,0.6418,0.6399,0.6397,0.6394,0.6393,0.6383,0.6384,0.6384,0.6404,0.6375,0.6375,0.6376,0.6376,0.6446,0.6448,0,0,0,0,0,0,0.6428,0.6426,0.6436,0.6436,0.6418,0.6409,0.6408,0.6412,0.6399,0.6396,0.6394,0.6391,0.6383,0.6383,0.6383,0.6419,0.6375,0.6376,0.6377,0.6445,0.6447,0.6448,0,0,0,0,0,0,0.6428,0.643,0.6437,0.643,0.643,0.6411,0.6417,0.6413,0.6414,0.6397,0.6393,0.6399,0.6382,0.6382,0.6399,0.6418,0.6377,0.6377,0.6443,0.6445,0.6447,0.6492,0,0,0,0,0,0,0.6428,0.643,0.6443,0.643,0.643,0.6454,0.6418,0.6414,0.6415,0.6411,0.6401,0.6397,0.6381,0.6398,0.64,0.6418,0.6378,0.6441,0.6444,0.6447,0.6488,0.6495,0.65,0,0,0,0,0,0.6427,0.6457,0.6444,0.6445,0.6447,0.6455,0.6455,0.6436,0.6417,0.6429,0.6418,0.6398,0.6416,0.64,0.6402,0.6421,0.644,0.6443,0.6446,0.6486,0.6494,0.65,0,0,0,0,0,0,0.6473,0.6455,0.644,0.6467,0.6463,0.6448,0.6463,0.6445,0.6447,0.6443,0.6419,0.6416,0.6436,0.643,0.6414,0.645,0.6424,0.6428,0.6453,0.6461,0.6467,0.6468,0.6378,0,0,0,0,0,0.6485,0.6494,0.6478,0.6503,0.6501,0.6483,0.6486,0.6471,0.6466,0.6464,0.6454,0.6449,0.6453,0.6457,0.646,0.6487,0.6483,0.65,0.6507,0.6512,0.6515,0.6526,0.6533,0.6458,0.6458,0.6458,0,0,0.6512,0.6504,0.6511,0.6511,0.6506,0.6515,0.6482,0.6493,0.6498,0.6466,0.648,0.6473,0.6466,0.6487,0.6496,0.6483,0.6534,0.6516,0.652,0.652,0.653,0.6537,0.6543,0.646,0.646,0.646,0,0,0.6565,0.6561,0.6579,0.6574,0.6567,0.6554,0.6559,0.6546,0.654,0.6554,0.6529,0.6535,0.6543,0.6538,0.6537,0.6585,0.6565,0.6587,0.6618,0.6629,0.6635,0.664,0.6655,0.6661,0.659,0.659,0.659,0,0.66,0.6612,0.6591,0.6603,0.6603,0.6573,0.659,0.6587,0.6581,0.6581,0.6566,0.6574,0.6567,0.6586,0.6597,0.6598,0.66,0.6588,0.6636,0.6641,0.6645,0.6659,0.6665,0.6593,0.6592,0.6592,0.6592,0,0.6654,0.6662,0.6678,0.6672,0.6674,0.6689,0.6668,0.6672,0.6657,0.6645,0.6658,0.6649,0.6648,0.6652,0.6638,0.6667,0.6659,0.6641,0.6614,0.6655,0.6668,0.6673,0.6596,0.6595,0.6595,0.6594,0,0,0.6736,0.6716,0.6723,0.6718,0.6707,0.6713,0.6725,0.6724,0.6727,0.6723,0.6732,0.6738,0.672,0.6718,0.6703,0.6713,0.6748,0.6692,0.6692,0.6702,0.6778,0.6791,0.6798,0.6735,0.6736,0.6737,0.6778,0,0.6785,0.6805,0.6785,0.6809,0.6815,0.6785,0.6796,0.6789,0.6778,0.678,0.6768,0.6772,0.6749,0.6747,0.6755,0.6742,0.6763,0.6739,0.6741,0.6741,0.6743,0.6805,0.6819,0.6858,0.6783,0.6783,0.6784,0,0.6846,0.6843,0.6868,0.6852,0.6854,0.6863,0.6859,0.6863,0.6854,0.6844,0.6841,0.6822,0.6831,0.6805,0.6816,0.6801,0.68,0.6793,0.6794,0.6793,0.6765,0.6804,0.687,0.6876,0.6792,0.6791,0.6791,0,0.6901,0.6904,0.6918,0.6916,0.6898,0.6905,0.6898,0.6888,0.6887,0.6883,0.6882,0.688,0.6879,0.6876,0.6856,0.6839,0.6868,0.6842,0.686,0.686,0.6867,0.6867,0.6933,0.6869,0.6869,0.6869,0.6868,0,0.6957,0.6972,0.6942,0.6951,0.6967,0.6943,0.6958,0.6948,0.6938,0.6943,0.6918,0.6923,0.6896,0.6897,0.6881,0.6892,0.6892,0.6883,0.6879,0.6885,0.6886,0.6884,0.688,0.687,0.687,0.6869,0.6869,0,0.7021,0.7002,0.7015,0.6997,0.6992,0.7005,0.6988,0.6994,0.698,0.6987,0.6987,0.6965,0.6965,0.6944,0.6941,0.693,0.6946,0.6938,0.695,0.6946,0.6965,0.6963,0.7032,0.7038,0.6971,0.6972,0.6972,0,0.7058,0.7069,0.7051,0.7052,0.7046,0.7049,0.7048,0.7024,0.7024,0.7012,0.702,0.7018,0.7015,0.7016,0.6999,0.6996,0.6986,0.701,0.6985,0.699,0.6984,0.6983,0.6983,0.7015,0.7016,0.7017,0.7017,0,0.7124,0.7113,0.7113,0.7109,0.7108,0.7104,0.7098,0.71,0.7073,0.7074,0.7074,0.7071,0.7067,0.7064,0.7057,0.7048,0.7028,0.7025,0.7029,0.7035,0.7041,0.7036,0.6962,0.7024,0.7023,0.7023,0.7022,0.7022,0.7175,0.7182,0.717,0.7169,0.7162,0.7156,0.716,0.7146,0.7145,0.714,0.7125,0.7126,0.7114,0.7102,0.7095,0.7095,0.7082,0.7088,0.7089,0.7091,0.7094,0.7041,0.7094,0.7093,0.7093,0.7093,0.7093,0,0.7238,0.7228,0.7228,0.7219,0.7219,0.7199,0.719,0.7191,0.7192,0.7183,0.718,0.7178,0.7175,0.7157,0.7151,0.7154,0.7144,0.7154,0.7153,0.715,0.7106,0.7103,0.7161,0.7161,0.7161,0.7161,0.7161,0.7161,0.7271,0.7281,0.7269,0.7274,0.7264,0.7265,0.7261,0.7255,0.7247,0.7246,0.7243,0.7231,0.7217,0.721,0.7205,0.72,0.7198,0.721,0.7202,0.716,0.7154,0.7148,0.7144,0.7211,0.7211,0.7246,0.7246,0.7246]}]]